sat.trackr.live / text

‹ back to catalog

STARLINK-1962

NORAD 47563 · 2021-009R

PAYLOAD ACTIVE UNKNOWN

§ Identity

Operator
Country
US
Launch date
2021-02-04
Launch site
AFETR
Launch vehicle
Mass (kg)
RCS (m²)

Purposes: comms

External: N2YO · Heavens-Above · Gunter

§ Orbital elements

Epoch: 2026-05-24T21:55:11.808768Z

Period
91.22 min
Inclination
53.0409°
Eccentricity
0.0002349
Mean motion
15.78667296 rev/d
Perigee alt
332.6 km
Apogee alt
335.8 km
Semi-major
6,712.4 km
B*
7.9017e-4
RAAN
339.3879°
Arg perigee
282.8647°
Mean anomaly
77.2111°
Rev number
29,312

§ Raw data

STARLINK-19621 47563U 21009R   26144.91333112  .00142754  00000+0  79017-3 0  99962 47563  53.0409 339.3879 0002349 282.8647  77.2111 15.78667296293128

JSON: /api/v1/satellites/47563 · /tle

For live sub-satellite position, see the globe view (requires WebGL).

§ Visibility from observer

Set your observer location to see the next 7 days of passes ≥ 10°. The values pass through the URL so the page stays shareable.

No JS? Fill the form by hand. The geolocation button needs JavaScript.